Location: Unspecified
(51.0950°N, 12.9690°E)
Time: 06:00:28
(UTC+00:00)

NANOSAT C BR1 - Pass Details

Date: 30 April 2024
Orbit: 556 x 561 km, 98.1° (Epoch: 19 May)

Event Time Altitude Azimuth Distance (km) Brightness Sun altitude
Rises 02:06:27 0° 26° (NNE) 2,774 ? -13.1°
Reaches altitude 10° 02:09:05 10° 44° (NE) 1,872 ? -12.8°
Maximum altitude 02:12:06 20° 92° (E) 1,345 ? -12.5°
Drops below altitude 10° 02:15:05 10° 140° (SE) 1,861 ? -12.2°
Sets 02:17:41 0° 158° (SSE) 2,752 ? -11.9°
